VK6MRG-14 Weather Reports


time (UTC)temp
C
wind
direction
speed
KPH
gust
KPH
rain 1hr
cm
rain 24hr
cm
rain mn
cm
humidity
%
barometer
mb
20190424041902 20 67 0.0 0.0 0.00 0.00 0.00 100 1030.3
20190424040359 20 90 0.0 0.0 0.00 0.00 0.00 100 1030.6
20190424035850 20 135 0.0 0.0 0.00 0.00 0.00 100 1030.7
20190424034850 20 67 0.0 0.0 0.00 0.00 0.00 100 1030.8
20190424033839 19 67 0.0 0.0 0.00 0.00 0.00 100 1031.0
20190424033324 19 90 0.0 0.0 0.00 0.00 0.00 100 1031.0
20190424032840 19 90 0.0 0.0 0.00 0.00 0.00 100 1031.0
20190424032329 19 90 0.0 0.0 0.00 0.00 0.00 100 1031.2
20190424031812 18 202 0.0 0.0 0.00 0.00 0.00 100 1031.2
20190424030810 18 90 0.0 0.0 0.00 0.00 0.00 100 1031.4
20190424030259 18 135 0.0 0.0 0.00 0.00 0.00 100 1031.5
20190424025300 17 135 0.0 0.0 0.00 0.00 0.00 100 1031.7
20190424024243 17 67 0.0 0.0 0.00 0.00 0.00 100 1031.8
20190424023739 17 90 0.0 0.0 0.00 0.00 0.00 100 1031.8
20190424023234 17 90 0.0 0.0 0.00 0.00 0.00 100 1031.9
20190424022730 16 90 0.0 1.6 0.00 0.00 0.00 100 1032.0
20190424022226 16 123 0.0 1.6 0.00 0.00 0.00 100 1031.9
20190424021722 16 123 0.0 0.0 0.00 0.00 0.00 100 1031.9
20190424021230 16 135 0.0 0.0 0.00 0.00 0.00 100 1031.8
20190424020209 16 135 0.0 0.0 0.00 0.00 0.00 100 1031.9
20190424014711 15 90 0.0 1.6 0.00 0.00 0.00 100 1031.9
20190424014153 14 90 0.0 1.6 0.00 0.00 0.00 100 1031.9
20190424012650 14 135 0.0 4.8 0.00 0.00 0.00 100 1032.1
20190424012140 14 135 0.0 3.2 0.00 0.00 0.00 100 1032.0
20190424011128 14 90 0.0 0.0 0.00 0.00 0.00 100 1032.0
20190424010120 13 135 0.0 0.0 0.00 0.00 0.00 100 1032.0
20190424005104 13 90 0.0 0.0 0.00 0.00 0.00 100 1032.0
20190424004600 13 67 0.0 0.0 0.00 0.00 0.00 100 1032.0
20190424004055 13 135 0.0 6.4 0.00 0.00 0.00 100 1032.0
20190424003551 12 135 0.0 0.0 0.00 0.00 0.00 100 1032.0
20190424003047 12 135 0.0 0.0 0.00 0.00 0.00 100 1032.1
20190424002039 12 146 0.0 0.0 0.00 0.00 0.00 100 1031.9
20190424001535 11 135 0.0 0.0 0.00 0.00 0.00 100 1031.8
20190424001031 11 90 0.0 0.0 0.00 0.00 0.00 100 1031.7
20190424000526 10 90 0.0 0.0 0.00 0.00 0.00 100 1031.6
20190423235014 8 90 0.0 0.0 0.00 0.00 0.00 100 1031.5
20190423234520 8 90 0.0 0.0 0.00 0.00 0.00 100 1031.5
20190423232011 7 90 0.0 0.0 0.00 0.00 0.00 100 1031.2
20190423231451 6 90 0.0 0.0 0.00 0.00 0.00 100 1031.2
20190423230940 6 90 0.0 0.0 0.00 0.00 0.00 100 1031.1
20190423230436 6 90 0.0 0.0 0.00 0.00 0.00 100 1031.1
20190423225941 6 90 0.0 0.0 0.00 0.00 0.00 100 1031.1
20190423224931 6 90 0.0 0.0 0.00 0.00 0.00 100 1031.1
20190423223915 6 90 0.0 0.0 0.00 0.00 0.00 100 1030.9
20190423223421 6 90 0.0 0.0 0.00 0.00 0.00 100 1030.8
20190423222907 7 90 0.0 0.0 0.00 0.00 0.00 100 1030.9
20190423221859 7 90 0.0 0.0 0.00 0.00 0.00 100 1030.8
20190423221402 7 90 0.0 0.0 0.00 0.00 0.00 100 1030.9
20190423220850 7 90 0.0 0.0 0.00 0.00 0.00 100 1030.9
20190423215851 7 90 0.0 0.0 0.00 0.00 0.00 100 1030.8
20190423214840 7 90 0.0 0.0 0.00 0.00 0.00 100 1030.7
20190423214329 7 90 0.0 0.0 0.00 0.00 0.00 100 1030.8
20190423213825 7 90 0.0 0.0 0.00 0.00 0.00 100 1030.6
20190423213321 7 90 0.0 0.0 0.00 0.00 0.00 100 1030.6
20190423212817 7 90 0.0 0.0 0.00 0.00 0.00 100 1030.6
20190423211809 7 90 0.0 0.0 0.00 0.00 0.00 100 1030.5
20190423211305 7 90 0.0 0.0 0.00 0.00 0.00 100 1030.5
20190423210256 7 90 0.0 0.0 0.00 0.00 0.00 100 1030.4
20190423205801 7 90 0.0 0.0 0.00 0.00 0.00 100 1030.5
20190423204251 8 90 0.0 0.0 0.00 0.00 0.00 100 1030.4
20190423203740 8 180 0.0 0.0 0.00 0.00 0.00 100 1030.3
20190423203231 8 180 0.0 0.0 0.00 0.00 0.00 100 1030.3
20190423202727 8 180 0.0 0.0 0.00 0.00 0.00 100 1030.3
20190423201215 8 180 0.0 0.0 0.00 0.00 0.00 100 1030.2
20190423200710 8 180 0.0 0.0 0.00 0.00 0.00 100 1030.3
20190423195158 8 180 0.0 0.0 0.00 0.00 0.00 100 1030.3
20190423194653 8 180 0.0 0.0 0.00 0.00 0.00 100 1030.2
20190423194149 9 180 0.0 0.0 0.00 0.00 0.00 100 1030.2
20190423193645 9 180 0.0 0.0 0.00 0.00 0.00 100 1030.3
20190423192637 9 180 0.0 0.0 0.00 0.00 0.00 100 1030.2
20190423190620 10 180 0.0 0.0 0.00 0.00 0.00 100 1030.2
20190423190116 10 180 0.0 0.0 0.00 0.00 0.00 100 1030.2
20190423185612 10 180 0.0 0.0 0.00 0.00 0.00 100 1030.1
20190423185107 10 225 0.0 0.0 0.00 0.00 0.00 100 1030.1
20190423184111 10 225 0.0 0.0 0.00 0.00 0.00 100 1030.2
20190423183555 10 225 0.0 0.0 0.00 0.00 0.00 100 1030.2
20190423183051 11 225 0.0 0.0 0.00 0.00 0.00 100 1030.2
20190423182547 11 180 0.0 0.0 0.00 0.00 0.00 100 1030.3
20190423182043 11 180 0.0 0.0 0.00 0.00 0.00 100 1030.3
20190423181538 11 180 0.0 0.0 0.00 0.00 0.00 100 1030.3
20190423181034 11 180 0.0 0.0 0.00 0.00 0.00 100 1030.4
20190423180530 11 180 0.0 0.0 0.00 0.00 0.00 100 1030.3
20190423175522 10 225 0.0 0.0 0.00 0.00 0.00 100 1030.4
20190423175017 10 90 0.0 0.0 0.00 0.00 0.00 100 1030.3
20190423174513 10 135 0.0 0.0 0.00 0.00 0.00 100 1030.3
20190423174009 9 135 0.0 0.0 0.00 0.00 0.00 100 1030.3
20190423173505 9 225 0.0 0.0 0.00 0.00 0.00 100 1030.3
20190423173001 10 225 0.0 0.0 0.00 0.00 0.00 100 1030.2
20190423172501 10 180 0.0 0.0 0.00 0.00 0.00 100 1030.2
20190423171448 10 180 0.0 0.0 0.00 0.00 0.00 100 1030.3
20190423170952 10 180 0.0 0.0 0.00 0.00 0.00 100 1030.1
20190423170440 10 90 0.0 0.0 0.00 0.00 0.00 100 1030.2
20190423165942 10 180 0.0 0.0 0.00 0.00 0.00 100 1030.1
20190423165431 10 225 0.0 0.0 0.00 0.00 0.00 100 1030.1
20190423163919 11 180 0.0 0.0 0.00 0.00 0.00 100 1030.1
20190423163415 11 180 0.0 0.0 0.00 0.00 0.00 100 1030.2
20190423162911 11 315 0.0 0.0 0.00 0.00 0.00 100 1030.1
20190423162406 11 315 0.0 0.0 0.00 0.00 0.00 100 1030.1
20190423160901 12 225 0.0 0.0 0.00 0.00 0.00 100 1030.0
20190423155852 12 135 0.0 0.0 0.00 0.00 0.00 100 1029.9
20190423155341 12 135 0.0 0.0 0.00 0.00 0.00 100 1029.9
20190423154837 12 135 0.0 0.0 0.00 0.00 0.00 100 1030.0
20190423154342 12 135 0.0 0.0 0.00 0.00 0.00 100 1030.0
20190423153829 12 135 0.0 0.0 0.00 0.00 0.00 100 1030.0
20190423153325 12 180 0.0 0.0 0.00 0.00 0.00 100 1030.1
20190423152821 12 135 0.0 0.0 0.00 0.00 0.00 100 1030.1
20190423152322 12 135 0.0 0.0 0.00 0.00 0.00 100 1030.1
20190423151308 12 135 0.0 0.0 0.00 0.00 0.00 100 1029.9
20190423150804 12 157 0.0 0.0 0.00 0.00 0.00 100 1030.0
20190423150300 13 135 0.0 0.0 0.00 0.00 0.00 100 1030.0
20190423145756 13 90 0.0 0.0 0.00 0.00 0.00 100 1030.0
20190423144747 13 90 0.0 0.0 0.00 0.00 0.00 100 1030.2
20190423144243 13 135 0.0 0.0 0.00 0.00 0.00 100 1030.1
20190423143752 13 180 0.0 0.0 0.00 0.00 0.00 100 1030.2
20190423143235 13 135 0.0 0.0 0.00 0.00 0.00 100 1030.2
20190423142742 13 180 0.0 0.0 0.00 0.00 0.00 100 1030.3
20190423142226 13 135 0.0 0.0 0.00 0.00 0.00 100 1030.4
20190423141722 13 146 0.0 0.0 0.00 0.00 0.00 100 1030.4
20190423141218 13 135 0.0 0.0 0.00 0.00 0.00 100 1030.4
20190423140742 13 135 0.0 0.0 0.00 0.00 0.00 100 1030.6
20190423135705 13 180 0.0 0.0 0.00 0.00 0.00 100 1030.5
20190423135222 13 168 0.0 0.0 0.00 0.00 0.00 100 1030.3
20190423134657 14 135 0.0 0.0 0.00 0.00 0.00 100 1030.4
20190423134153 14 135 0.0 0.0 0.00 0.00 0.00 100 1030.4
20190423133649 14 157 0.0 0.0 0.00 0.00 0.00 100 1030.4
20190423133144 14 135 0.0 0.0 0.00 0.00 0.00 100 1030.2
20190423132136 14 247 0.0 0.0 0.00 0.00 0.00 100 1030.2
20190423131128 14 45 0.0 0.0 0.00 0.00 0.00 100 1030.1
20190423130624 14 180 0.0 0.0 0.00 0.00 0.00 100 1030.0
20190423130120 14 135 0.0 0.0 0.00 0.00 0.00 100 1030.0
20190423125615 14 135 0.0 1.6 0.00 0.00 0.00 100 1029.9
20190423125111 13 135 0.0 0.0 0.00 0.00 0.00 100 1029.9
20190423124611 13 135 0.0 0.0 0.00 0.00 0.00 100 1029.8
20190423124112 13 135 0.0 0.0 0.00 0.00 0.00 100 1029.7
20190423123102 13 180 0.0 0.0 0.00 0.00 0.00 100 1029.5
20190423122602 12 180 0.0 0.0 0.00 0.00 0.00 100 1029.6
20190423122046 12 90 0.0 0.0 0.00 0.00 0.00 100 1029.5
20190423121542 12 180 0.0 0.0 0.00 0.00 0.00 100 1029.4
20190423121038 12 180 0.0 0.0 0.00 0.00 0.00 100 1029.3
20190423120534 12 180 0.0 0.0 0.00 0.00 0.00 100 1029.3
20190423115532 12 180 0.0 0.0 0.00 0.00 0.00 100 1029.0
20190423115021 12 180 0.0 0.0 0.00 0.00 0.00 100 1028.9
20190423114522 12 180 0.0 0.0 0.00 0.00 0.00 100 1028.9
20190423114022 12 180 0.0 0.0 0.00 0.00 0.00 100 1028.8
20190423113004 13 180 0.0 0.0 0.00 0.00 0.00 100 1028.7
20190423112500 13 180 0.0 0.0 0.00 0.00 0.00 100 1028.7
20190423112022 13 180 0.0 0.0 0.00 0.00 0.00 100 1028.6
20190423111452 13 180 0.0 0.0 0.00 0.00 0.00 100 1028.5
20190423110952 13 180 0.0 0.0 0.00 0.00 0.00 100 1028.5
20190423105939 14 180 0.0 0.0 0.00 0.00 0.00 100 1028.5
20190423105435 14 180 0.0 0.0 0.00 0.00 0.00 100 1028.5
20190423104931 15 180 0.0 0.0 0.00 0.00 0.00 100 1028.4
20190423104427 15 180 0.0 0.0 0.00 0.00 0.00 100 1028.3
20190423103922 15 180 0.0 0.0 0.00 0.00 0.00 100 1028.2
20190423103419 15 180 0.0 0.0 0.00 0.00 0.00 100 1028.2
20190423102914 16 180 0.0 0.0 0.00 0.00 0.00 100 1028.1
20190423102410 16 180 0.0 0.0 0.00 0.00 0.00 100 1028.1
20190423101913 16 180 0.0 0.0 0.00 0.00 0.00 100 1028.0
20190423101403 17 180 0.0 0.0 0.00 0.00 0.00 100 1028.0
20190423100857 17 180 0.0 0.0 0.00 0.00 0.00 100 1027.9
20190423100402 18 180 0.0 0.0 0.00 0.00 0.00 100 1027.9
20190423095849 18 180 0.0 0.0 0.00 0.00 0.00 100 1027.8
20190423094337 20 180 0.0 0.0 0.00 0.00 0.00 100 1027.7
20190423093832 20 180 0.0 0.0 0.00 0.00 0.00 100 1027.6
20190423092320 21 180 0.0 0.0 0.00 0.00 0.00 100 1027.7
20190423091816 21 180 0.0 0.0 0.00 0.00 0.00 100 1027.5
20190423091332 22 180 0.0 0.0 0.00 0.00 0.00 100 1027.4
20190423090807 22 180 0.0 0.0 0.00 0.00 0.00 100 1027.4
20190423085759 22 180 0.0 0.0 0.00 0.00 0.00 100 1027.2
20190423085255 22 225 0.0 0.0 0.00 0.00 0.00 100 1027.2
20190423084252 22 135 0.0 0.0 0.00 0.00 0.00 100 1027.2
20190423083752 22 180 0.0 0.0 0.00 0.00 0.00 100 1027.2
20190423083238 23 0 0.0 0.0 0.00 0.00 0.00 100 1027.1
20190423082734 23 0 0.0 0.0 0.00 0.00 0.00 100 1027.1
20190423082230 23 135 0.0 0.0 0.00 0.00 0.00 100 1027.1
20190423081726 23 225 0.0 0.0 0.00 0.00 0.00 100 1027.0
20190423080717 23 180 0.0 0.0 0.00 0.00 0.00 100 1026.9
20190423080232 23 135 0.0 0.0 0.00 0.00 0.00 100 1026.9
20190423075205 24 135 0.0 3.2 0.00 0.00 0.00 100 1026.8
20190423074717 24 135 0.0 0.0 0.00 0.00 0.00 100 1026.7
20190423074156 24 90 0.0 0.0 0.00 0.00 0.00 100 1026.7
20190423072644 24 90 0.0 0.0 0.00 0.00 0.00 100 1026.5
20190423072140 24 225 0.0 0.0 0.00 0.00 0.00 100 1026.5
20190423071132 24 270 0.0 0.0 0.00 0.00 0.00 100 1026.5
20190423070123 24 270 0.0 0.0 0.00 0.00 0.00 100 1026.6
20190423065619 24 180 0.0 0.0 0.00 0.00 0.00 100 1026.5
20190423065115 24 135 0.0 0.0 0.00 0.00 0.00 100 1026.5
20190423064623 24 180 0.0 0.0 0.00 0.00 0.00 100 1026.5
20190423063603 24 0 0.0 0.0 0.00 0.00 0.00 100 1026.5
20190423063103 24 90 0.0 0.0 0.00 0.00 0.00 100 1026.6
20190423061545 23 180 0.0 0.0 0.00 0.00 0.00 100 1026.5
20190423061043 23 22 0.0 0.0 0.00 0.00 0.00 100 1026.6
20190423060537 24 225 0.0 0.0 0.00 0.00 0.00 100 1026.6
20190423055529 24 337 0.0 0.0 0.00 0.00 0.00 100 1026.5
20190423055025 23 270 0.0 4.8 0.00 0.00 0.00 100 1026.7
20190423054520 23 225 0.0 0.0 0.00 0.00 0.00 100 1026.6
20190423054016 23 180 0.0 0.0 0.00 0.00 0.00 100 1026.7
20190423053512 23 135 0.0 0.0 0.00 0.00 0.00 100 1026.8
20190423053013 23 225 0.0 0.0 0.00 0.00 0.00 100 1026.8
20190423052504 23 202 0.0 0.0 0.00 0.00 0.00 100 1026.9
20190423052000 23 180 0.0 0.0 0.00 0.00 0.00 100 1027.0
20190423051503 23 180 0.0 0.0 0.00 0.00 0.00 100 1026.9
20190423050951 23 90 0.0 0.0 0.00 0.00 0.00 100 1026.8
20190423050453 23 225 0.0 0.0 0.00 0.00 0.00 100 1026.9
20190423045943 23 180 0.0 0.0 0.00 0.00 0.00 100 1026.9
20190423045439 23 270 0.0 0.0 0.00 0.00 0.00 100 1026.9
20190423044934 23 180 0.0 0.0 0.00 0.00 0.00 100 1027.1
20190423043926 22 292 0.0 0.0 0.00 0.00 0.00 100 1027.1
20190423043433 22 0 0.0 0.0 0.00 0.00 0.00 100 1027.2
20190423042918 22 22 0.0 0.0 0.00 0.00 0.00 100 1027.3